JAL92 RJOH-RJBB

Flight info

Callsign JAL92
Flight time 0h 27m
Altitude 17000
Route TOZAN
Aircraft A359/H-SDE2E3GHIJ3J4J5LM1ORWXY/LB1D1

Departure

Time 2026-05-06 14:30
Airport Yonago Kitaro Airport / JASDF Miho Air Base (RJOH)

Arrival

Time 2026-05-06 14:57
Airport Kansai International Airport (RJBB)
Time Latitude Longitude Altitude Speed Heading
2026-05-06 14:17 35.50031 133.24655 30 ft 0 kts 334°
2026-05-06 14:24 35.50033 133.24655 30 ft 1 kts 344°
2026-05-06 14:24 35.50038 133.24658 30 ft 0 kts 17°
2026-05-06 14:25 35.50041 133.24664 30 ft 1 kts 45°
2026-05-06 14:25 35.50028 133.24693 30 ft 9 kts 137°
2026-05-06 14:25 35.49935 133.24730 30 ft 17 kts 145°
2026-05-06 14:25 35.49886 133.24828 30 ft 9 kts 82°
2026-05-06 14:26 35.49916 133.24901 31 ft 11 kts 61°
2026-05-06 14:26 35.49948 133.24977 31 ft 7 kts 70°
2026-05-06 14:26 35.49949 133.25039 31 ft 7 kts 108°
2026-05-06 14:26 35.49939 133.25061 31 ft 0 kts 121°
2026-05-06 14:29 35.49937 133.25065 31 ft 2 kts 128°
2026-05-06 14:29 35.49880 133.25113 30 ft 17 kts 151°
2026-05-06 14:30 35.49796 133.25059 30 ft 15 kts 244°
2026-05-06 14:30 35.49686 133.24791 29 ft 80 kts 244°
2026-05-06 14:30 35.49277 133.23772 96 ft 177 kts 244°
2026-05-06 14:30 35.48614 133.22377 1011 ft 200 kts 225°
2026-05-06 14:31 35.47392 133.21716 2525 ft 193 kts 181°
2026-05-06 14:31 35.46265 133.22393 3777 ft 181 kts 133°
2026-05-06 14:31 35.45821 133.23800 4641 ft 180 kts 107°
2026-05-06 14:31 35.45799 133.25374 5066 ft 202 kts 71°
2026-05-06 14:32 35.46724 133.26782 5321 ft 232 kts 28°
2026-05-06 14:32 35.48378 133.27256 5383 ft 261 kts 353°
2026-05-06 14:32 35.50178 133.26732 5232 ft 271 kts 340°
2026-05-06 14:32 35.52021 133.26247 5398 ft 275 kts 350°
2026-05-06 14:33 35.53957 133.26172 6170 ft 279 kts
2026-05-06 14:33 35.55832 133.26478 7260 ft 279 kts
2026-05-06 14:33 35.57762 133.27147 8293 ft 286 kts 18°
2026-05-06 14:33 35.59571 133.28158 9253 ft 294 kts 28°
2026-05-06 14:34 35.61191 133.29720 10213 ft 301 kts 47°
2026-05-06 14:34 35.62265 133.31993 10772 ft 322 kts 74°
2026-05-06 14:34 35.62389 133.34800 11178 ft 342 kts 102°
2026-05-06 14:34 35.61590 133.37605 11780 ft 354 kts 115°
2026-05-06 14:35 35.60604 133.40422 12549 ft 362 kts 114°
2026-05-06 14:35 35.59645 133.43312 13358 ft 369 kts 113°
2026-05-06 14:35 35.58701 133.46273 14121 ft 375 kts 112°
2026-05-06 14:35 35.57761 133.49287 14798 ft 382 kts 111°
2026-05-06 14:36 35.56825 133.52321 15480 ft 388 kts 111°
2026-05-06 14:36 35.55867 133.55446 16170 ft 393 kts 111°
2026-05-06 14:36 35.54900 133.58606 16867 ft 399 kts 111°
2026-05-06 14:36 35.53916 133.61826 17591 ft 405 kts 111°
2026-05-06 14:37 35.52926 133.65075 18305 ft 410 kts 110°
2026-05-06 14:37 35.51705 133.68258 18941 ft 416 kts 121°
2026-05-06 14:37 35.49905 133.71031 19558 ft 419 kts 138°
2026-05-06 14:37 35.47513 133.73007 20200 ft 420 kts 157°
2026-05-06 14:38 35.44762 133.74341 20867 ft 424 kts 162°
2026-05-06 14:38 35.41995 133.75541 21508 ft 428 kts 163°
2026-05-06 14:38 35.39173 133.76761 22157 ft 433 kts 163°
2026-05-06 14:38 35.36309 133.78002 22766 ft 438 kts 163°
2026-05-06 14:39 35.33432 133.79252 23066 ft 441 kts 163°
2026-05-06 14:39 35.30487 133.80530 23126 ft 459 kts 163°
2026-05-06 14:39 35.27416 133.81860 23124 ft 477 kts 163°
2026-05-06 14:39 35.24269 133.83227 23097 ft 481 kts 162°
2026-05-06 14:40 35.21124 133.84596 23126 ft 480 kts 162°
2026-05-06 14:40 35.18021 133.85944 23117 ft 479 kts 162°
2026-05-06 14:40 35.14884 133.87306 23117 ft 479 kts 162°
2026-05-06 14:40 35.11745 133.88666 23130 ft 479 kts 162°
2026-05-06 14:41 35.08602 133.90027 23125 ft 479 kts 162°
2026-05-06 14:41 35.05465 133.91383 23125 ft 479 kts 162°
2026-05-06 14:41 35.02323 133.92741 23118 ft 479 kts 162°
2026-05-06 14:41 34.99185 133.94095 23123 ft 478 kts 162°
2026-05-06 14:42 34.96055 133.95446 23132 ft 478 kts 162°
2026-05-06 14:42 34.92920 133.96798 23128 ft 478 kts 162°
2026-05-06 14:42 34.89791 133.98145 23127 ft 477 kts 162°
2026-05-06 14:42 34.86696 133.99478 23125 ft 477 kts 162°
2026-05-06 14:43 34.83575 134.00820 22565 ft 474 kts 162°
2026-05-06 14:43 34.80479 134.02149 21772 ft 470 kts 162°
2026-05-06 14:43 34.77414 134.03470 21026 ft 465 kts 161°
2026-05-06 14:43 34.74384 134.04775 20297 ft 459 kts 161°
2026-05-06 14:44 34.71390 134.06063 19576 ft 455 kts 161°
2026-05-06 14:44 34.68455 134.07322 18850 ft 450 kts 161°
2026-05-06 14:44 34.65479 134.08597 18057 ft 446 kts 161°
2026-05-06 14:45 34.59788 134.11056 17160 ft 425 kts 159°
2026-05-06 14:45 34.57203 134.12774 17116 ft 426 kts 143°
2026-05-06 14:45 34.55172 134.15338 16963 ft 413 kts 126°
2026-05-06 14:45 34.53884 134.18343 16177 ft 394 kts 112°
2026-05-06 14:46 34.52944 134.21453 14753 ft 393 kts 111°
2026-05-06 14:46 34.52017 134.24604 13062 ft 400 kts 111°
2026-05-06 14:46 34.51073 134.27737 12097 ft 387 kts 112°
2026-05-06 14:46 34.50184 134.30642 11586 ft 365 kts 112°
2026-05-06 14:47 34.49286 134.33542 10963 ft 369 kts 112°
2026-05-06 14:47 34.48404 134.36368 10732 ft 341 kts 112°
2026-05-06 14:47 34.47604 134.38932 10579 ft 310 kts 112°
2026-05-06 14:47 34.46871 134.41276 10460 ft 286 kts 112°
2026-05-06 14:48 34.46186 134.43461 10337 ft 274 kts 112°
2026-05-06 14:48 34.45498 134.45639 10218 ft 278 kts 112°
2026-05-06 14:48 34.44805 134.47832 10102 ft 281 kts 112°
2026-05-06 14:48 34.44111 134.50030 9996 ft 278 kts 112°
2026-05-06 14:49 34.43412 134.52241 9904 ft 292 kts 112°
2026-05-06 14:49 34.42680 134.54552 9819 ft 294 kts 112°
2026-05-06 14:49 34.41953 134.56851 9313 ft 294 kts 112°
2026-05-06 14:49 34.41219 134.59174 8850 ft 294 kts 112°
2026-05-06 14:50 34.40492 134.61471 8499 ft 292 kts 112°
2026-05-06 14:50 34.39772 134.63741 8168 ft 290 kts 112°
2026-05-06 14:50 34.39045 134.66035 7847 ft 289 kts 112°
2026-05-06 14:50 34.38333 134.68278 7527 ft 287 kts 112°
2026-05-06 14:51 34.37620 134.70524 7211 ft 286 kts 112°
2026-05-06 14:51 34.36910 134.72761 6913 ft 284 kts 112°
2026-05-06 14:51 34.36214 134.74963 6601 ft 283 kts 112°
2026-05-06 14:51 34.35509 134.77173 6270 ft 281 kts 112°
2026-05-06 14:52 34.34806 134.79372 5946 ft 279 kts 112°
2026-05-06 14:52 34.34109 134.81555 5637 ft 277 kts 112°
2026-05-06 14:52 34.33416 134.83725 5316 ft 275 kts 112°
2026-05-06 14:52 34.32809 134.85911 4998 ft 274 kts 99°
2026-05-06 14:53 34.32868 134.88204 4708 ft 273 kts 83°
2026-05-06 14:53 34.33111 134.90474 4421 ft 272 kts 83°
2026-05-06 14:53 34.33361 134.92740 4145 ft 271 kts 83°
2026-05-06 14:53 34.33602 134.94981 3896 ft 267 kts 84°
2026-05-06 14:54 34.33831 134.97195 3877 ft 270 kts 84°
2026-05-06 14:54 34.34067 134.99447 3826 ft 269 kts 84°
2026-05-06 14:54 34.34294 135.01655 3572 ft 261 kts 85°
2026-05-06 14:54 34.34501 135.03823 3222 ft 257 kts 85°
2026-05-06 14:55 34.34691 135.05950 2891 ft 254 kts 86°
2026-05-06 14:55 34.34879 135.08063 2581 ft 249 kts 84°
2026-05-06 14:55 34.35471 135.10056 2310 ft 275 kts 58°
2026-05-06 14:55 34.36797 135.11948 1892 ft 303 kts 46°
2026-05-06 14:56 34.38243 135.13775 1476 ft 300 kts 48°
2026-05-06 14:56 34.39549 135.15617 1100 ft 278 kts 52°
2026-05-06 14:56 34.40698 135.17403 743 ft 259 kts 52°
2026-05-06 14:56 34.41778 135.19007 399 ft 231 kts 50°
2026-05-06 14:57 34.42735 135.20430 67 ft 204 kts 46°
2026-05-06 14:57 34.43537 135.21628 39 ft 150 kts 50°
2026-05-06 14:57 34.44011 135.22321 37 ft 63 kts 53°
2026-05-06 14:57 34.44083 135.22507 36 ft 4 kts 72°
2026-05-06 14:58 34.44096 135.22561 36 ft 9 kts 74°
2026-05-06 14:58 34.44111 135.22647 35 ft 12 kts 83°
2026-05-06 14:58 34.44117 135.22785 35 ft 19 kts 96°
2026-05-06 14:58 34.44068 135.22904 35 ft 17 kts 135°
2026-05-06 14:59 34.43962 135.22993 35 ft 19 kts 142°
2026-05-06 14:59 34.43932 135.23021 35 ft 0 kts 142°